Volver al catálogo

GORIZONT 8

ActivoComunicacionesGEO
NORAD 14532·PAYLOAD·🇷🇺 Russia

Lanzado Nov 30, 1983 desde Baikonur Cosmodrome

Loading…

TLE

ActualizadoSource: Space-Track

Época: Sep 14, 2026, 01:33 UTC

1 14532U 83118A   26257.06491003 -.00000132  00000-0  00000-0 0  9998
2 14532   9.4322 314.0942 0025851 188.4763 176.8686  0.98270335121382

Sigue GORIZONT 8 en tiempo real con AllMySat

Download on the App Store